Simultaneous Nadir Overpasses (SNOs) Predictions

Prediction of SNOs between GOES-15 and METOP-C Satellite Orbit:

Table of predicted SNOs for the next 14.0 days since TLE Epoch: 6/2/2024
Index Date Time (GOES-15) GOES-15 Lat,Lon METOP-C Lat,Lon Distance(km) Time Diff (sec)
1 06/04/2024 05:25:12 -0.19, 61.49 -0.18, 61.51 1.77 80
2 06/06/2024 17:20:55 0.19, 61.47 0.27, 61.91 49.04 80
3 06/08/2024 05:42:26 -0.17, 61.44 0.77, 57.35 466.23 80
4 06/09/2024 05:19:07 -0.19, 61.43 -0.37, 62.34 103.57 80
5 06/10/2024 17:40:49 0.18, 61.43 -0.67, 57.75 419.77 80
6 06/11/2024 17:17:30 0.20, 61.41 0.47, 62.74 150.33 80
7 06/13/2024 05:39:02 -0.18, 61.38 0.55, 58.18 364.49 80
8 06/14/2024 05:15:43 -0.20, 61.37 -0.60, 63.17 205.29 80
9 06/15/2024 17:37:24 0.17, 61.37 -0.43, 58.58 318.19 80
